Wind_Speed
33 33 33 32 31 32 35 36 36 35 36 36 35 34 34 34 32 31 33 33 31 34 34 34 36 34 32 32 32 31 30 28 27 29 30 29 29 30 31 31 30 28 26 27 27 25 26 27 28 29 30 31 30 29 28 27 26 26 25 25 24 24 24 23 24 24 24 24 25 25 26 27 28 28 29 30 31 32 32 32 33 35 38 40 42 44
34 35 34 32 33 35 38 37 37 37 38 38 36 35 35 35 34 34 35 34 33 35 35 35 37 35 33 33 33 33 31 29 28 29 31 31 30 31 32 32 32 30 28 29 28 27 27 28 29 31 32 32 32 31 30 29 28 27 26 26 25 25 24 24 25 26 26 27 28 29 29 30 30 31 32 33 34 34 34 34 35 38 40 42 44 46
36 37 35 34 35 38 39 39 39 39 39 39 37 37 37 36 36 36 37 36 35 37 35 35 39 37 34 34 33 34 34 32 30 30 31 33 33 31 32 33 33 31 30 30 30 29 29 29 30 32 33 34 33 32 31 30 29 28 27 27 26 26 26 26 27 28 29 30 30 31 32 32 33 34 35 36 37 37 36 36 38 40 42 44 46 48
39 38 38 37 38 39 39 40 41 41 40 40 39 39 39 38 37 38 38 38 37 37 37 37 40 38 35 35 35 34 35 34 32 31 32 35 34 32 33 35 33 31 32 32 31 31 31 30 31 33 34 34 34 33 32 31 30 29 28 27 27 27 28 29 29 30 31 32 33 34 34 35 35 37 38 39 40 40 39 39 41 42 44 46 48 50
41 42 43 40 39 39 40 40 41 41 42 41 40 41 41 40 39 38 39 41 39 38 38 39 42 40 34 36 37 34 35 35 33 32 34 36 35 33 34 35 35 33 33 33 32 33 32 32 33 34 35 35 34 34 33 31 30 30 29 29 29 29 30 31 32 33 33 34 35 36 37 37 38 39 40 42 42 42 42 43 44 45 46 48 49 51
43 45 46 42 39 38 39 40 41 41 42 42 41 41 42 40 40 39 40 42 41 39 38 40 43 41 35 36 37 34 34 35 33 33 36 37 36 35 35 36 36 34 33 33 33 34 33 33 34 35 35 35 35 34 33 32 31 31 31 31 31 31 32 32 33 34 35 36 37 38 39 40 41 42 43 44 44 45 45 46 48 48 49 50 52 53
46 47 46 42 39 37 39 40 41 42 42 42 42 42 41 40 39 39 39 41 42 41 40 41 43 43 38 34 34 34 35 35 33 33 36 38 38 37 37 36 37 35 34 34 34 34 34 35 35 36 36 36 35 34 33 32 32 32 33 33 33 33 33 34 35 36 37 39 40 41 42 42 42 43 44 46 47 48 49 50 50 51 52 53 54 55
48 46 44 42 40 39 39 40 41 42 43 43 42 41 41 40 39 38 38 40 42 42 43 42 42 45 42 32 29 33 36 36 34 34 36 39 39 39 39 38 37 36 35 35 35 35 36 36 36 36 37 37 36 35 34 33 33 33 34 34 33 34 35 36 38 39 40 41 42 43 42 42 43 45 47 48 50 51 51 52 53 53 54 55 55 57
46 45 43 42 41 40 40 40 40 42 43 42 41 40 40 40 39 38 38 40 41 44 46 43 40 44 45 35 30 33 35 35 34 35 39 40 39 40 40 39 38 37 37 36 36 36 36 37 36 37 37 37 36 35 35 34 34 34 34 34 34 36 37 39 40 41 43 43 43 43 43 44 45 47 49 50 51 52 53 54 54 55 56 56 57 59
47 45 42 41 41 40 39 39 39 40 41 41 39 39 39 39 39 38 40 40 42 47 47 41 38 42 45 40 35 34 32 32 33 36 40 41 41 41 41 40 39 39 38 37 37 37 37 37 37 37 36 36 36 35 35 35 34 35 35 35 36 38 39 40 41 42 44 44 44 45 45 46 48 50 51 52 53 54 55 55 55 56 57 58 60 60
48 46 44 42 41 39 38 38 38 38 39 39 39 39 38 39 39 39 41 41 45 49 45 40 38 41 46 43 38 36 32 30 32 36 39 40 41 42 41 40 40 40 40 38 38 38 37 37 37 37 36 36 36 35 35 35 35 36 36 37 38 39 40 42 43 44 45 46 47 47 48 50 51 52 53 54 55 55 55 55 56 58 59 60 61 61
46 46 45 42 40 39 39 38 38 39 39 39 40 40 39 40 41 42 43 44 48 49 44 42 40 42 47 45 40 39 36 31 31 35 38 39 40 40 40 40 40 41 41 40 39 37 37 37 37 37 36 36 36 35 35 36 36 37 38 39 40 41 42 43 44 45 47 48 50 51 52 52 54 55 55 55 55 55 55 56 57 59 60 61 62 62
45 44 43 43 42 40 39 39 39 39 38 39 40 40 40 42 44 45 46 46 47 46 44 44 44 45 48 43 39 39 38 34 32 33 36 37 38 39 39 39 40 40 40 40 38 37 37 37 37 37 37 36 36 36 36 37 37 39 40 41 42 43 44 45 46 48 50 51 52 53 54 55 56 56 56 55 55 55 56 57 59 60 61 62 62 63
45 43 42 42 41 39 38 39 38 38 38 40 41 41 42 44 46 47 47 46 46 45 45 46 47 49 47 41 38 36 37 37 35 33 35 36 37 37 37 38 39 39 39 39 38 38 37 37 37 37 37 37 37 36 37 38 39 40 41 42 43 44 45 46 48 49 51 52 53 54 55 56 57 57 56 56 56 57 58 59 60 61 62 63 64 65
45 43 41 39 39 38 38 38 39 41 42 43 42 43 45 45 46 46 46 47 47 47 47 48 50 50 46 42 39 36 35 37 36 34 33 33 35 36 36 36 37 38 38 38 38 38 37 37 38 38 38 37 37 37 37 38 39 40 42 43 44 45 46 47 49 50 51 52 53 54 56 57 57 56 56 57 58 58 59 60 62 63 64 65 65 66
45 44 42 40 39 39 39 39 41 44 45 44 43 45 46 44 43 45 47 48 48 50 51 51 51 49 45 43 41 38 35 34 35 34 32 31 33 34 35 35 35 37 37 37 38 38 38 38 38 39 38 38 37 37 37 38 39 40 41 43 44 46 48 49 50 51 52 53 54 55 56 56 57 57 58 59 59 60 61 62 63 64 65 66 67 68
46 46 45 43 41 40 41 41 42 45 46 46 45 45 44 43 43 45 47 48 49 52 53 52 51 49 47 45 42 40 38 35 34 34 33 32 32 32 33 34 35 36 36 36 37 37 38 39 39 39 39 38 38 39 39 40 40 41 42 44 46 48 50 51 52 53 54 54 55 56 57 57 58 59 60 60 61 62 62 63 64 66 67 68 69 70
46 48 47 46 44 43 42 42 44 46 48 47 46 45 43 44 45 46 47 49 50 53 55 54 53 52 51 48 44 42 40 37 35 34 34 33 32 31 32 33 35 35 35 36 36 37 38 39 40 41 40 40 41 42 43 43 43 44 45 48 50 51 52 53 55 56 56 56 57 58 58 59 60 61 61 61 62 63 64 65 66 68 69 70 71 73
47 49 50 50 48 45 44 44 46 47 48 47 46 46 45 46 47 46 47 50 51 54 56 55 54 53 52 49 46 44 42 39 37 35 33 32 31 31 31 32 34 34 35 37 38 39 39 41 42 42 42 43 44 45 46 47 47 48 50 52 53 54 54 56 57 58 59 59 59 60 60 61 61 61 62 62 63 64 65 67 68 69 70 72 73 75
49 51 52 52 50 48 46 46 45 45 44 45 46 47 47 47 47 47 48 50 51 54 56 57 57 54 51 50 49 48 43 39 37 35 33 31 31 31 31 31 32 33 35 37 39 40 41 42 44 44 44 46 48 49 50 50 51 52 54 55 56 56 57 58 59 60 61 61 61 61 62 62 62 62 62 63 64 66 68 69 70 71 72 74 76 77
51 53 53 53 51 49 47 44 42 41 42 44 46 48 48 47 47 48 50 51 52 53 55 58 59 55 52 52 51 50 46 40 36 34 32 32 32 32 32 32 32 33 35 37 38 40 41 43 44 45 47 50 52 53 53 53 54 56 57 57 58 58 59 60 61 62 62 62 62 63 63 63 63 63 64 65 67 69 70 71 72 73 75 76 78 79
50 51 52 52 52 50 47 44 43 44 45 46 47 48 49 47 46 48 51 51 51 53 54 57 60 57 53 53 53 51 47 41 37 34 32 31 32 33 32 32 33 34 36 37 38 39 40 42 45 47 50 52 54 56 56 56 56 58 58 58 59 60 61 62 63 64 64 64 65 65 65 65 65 65 66 67 69 71 72 74 75 77 78 79 80 80
49 51 52 53 53 51 48 47 47 47 48 49 50 50 49 48 47 47 49 49 51 53 54 57 60 58 53 52 52 50 46 41 37 35 34 33 33 34 34 34 35 36 37 39 39 40 41 42 44 46 49 51 53 54 55 56 58 59 59 60 61 62 63 65 66 66 66 67 67 67 67 67 67 68 69 70 72 74 75 77 78 79 80 80 81 82
52 54 55 54 53 52 51 50 50 51 52 52 50 49 48 48 47 47 48 49 51 54 54 57 60 59 55 54 52 50 46 42 39 37 37 36 36 37 37 36 36 38 39 39 39 40 42 43 44 46 48 50 51 53 55 57 59 60 61 62 64 65 67 68 68 69 69 69 69 69 69 68 69 70 71 73 75 77 79 80 81 81 81 82 82 83
54 54 55 54 54 54 54 54 54 53 52 50 48 47 48 48 48 50 52 51 54 55 54 57 60 57 54 55 54 50 47 44 41 38 38 38 38 38 38 37 38 40 41 41 41 42 43 44 45 47 49 49 51 52 55 57 60 62 64 66 67 68 69 70 71 71 71 71 70 70 70 70 71 72 74 76 78 80 82 82 82 82 83 83 83 83
56 56 56 55 55 55 55 55 54 52 49 48 48 49 51 51 51 53 53 54 57 57 54 57 58 54 51 53 53 50 47 44 42 40 39 39 39 39 39 40 42 44 45 46 46 46 46 47 48 49 50 50 51 54 56 59 62 64 66 67 69 70 71 73 73 73 72 72 71 70 71 71 73 74 77 79 81 82 83 83 83 83 83 83 83 82
58 59 58 57 58 57 55 54 54 53 52 52 51 52 54 54 54 56 57 58 58 56 56 58 56 53 51 50 49 48 47 44 43 42 42 42 42 43 43 45 46 48 49 49 49 49 50 51 52 52 52 52 54 56 59 62 64 66 67 68 69 71 72 74 73 73 72 72 71 71 71 73 75 77 79 81 82 83 84 84 84 83 83 82 81 80
59 61 60 59 60 58 55 54 55 55 54 54 54 55 55 56 56 59 61 60 56 55 59 58 53 53 52 48 47 48 48 46 45 45 45 46 47 48 48 50 51 52 51 51 52 52 53 54 54 54 54 55 57 59 62 65 67 68 69 69 70 72 73 73 73 72 72 71 71 71 72 74 77 79 81 82 83 84 84 84 83 83 82 81 80 79
60 60 58 59 59 57 54 53 54 55 55 56 58 58 58 58 59 60 61 59 56 58 60 56 53 55 53 49 50 51 51 51 50 50 50 51 51 52 53 54 54 54 54 54 55 56 56 57 57 57 57 58 61 63 65 67 69 70 71 71 72 73 73 72 71 71 71 71 71 71 73 76 79 81 82 83 83 84 83 83 82 82 81 80 79 78
58 57 55 57 59 56 54 53 54 57 59 60 60 60 60 60 59 59 60 58 58 60 59 56 56 57 53 51 53 53 52 53 53 53 53 52 52 53 54 56 56 56 56 57 58 59 60 60 60 60 61 62 64 66 67 68 69 70 71 72 72 72 70 70 70 70 71 70 71 72 75 78 80 82 83 83 83 83 82 81 81 80 79 78 77 76
55 54 53 57 60 57 54 54 57 59 61 61 60 60 60 61 62 63 62 59 58 59 56 54 56 55 51 51 53 52 51 52 52 52 52 52 53 54 55 56 56 57 58 58 60 61 61 62 63 63 64 65 66 67 68 68 69 71 71 71 70 70 69 69 70 70 70 70 72 75 78 80 82 82 82 82 82 82 81 80 79 78 77 76 75 74
56 56 56 58 62 60 55 56 61 61 61 63 63 61 60 62 64 65 63 59 58 58 54 53 55 53 48 49 51 52 53 54 54 54 53 53 55 55 56 57 59 60 61 61 62 62 63 64 65 66 66 67 67 67 68 69 70 71 71 70 69 69 69 69 69 69 70 71 74 77 79 81 81 82 81 81 81 80 79 78 77 76 75 74 73 73
58 58 59 60 64 63 59 60 64 64 66 68 64 60 60 63 63 63 62 61 59 58 56 56 56 52 49 51 54 55 56 56 56 55 55 55 56 58 59 61 62 63 63 63 64 64 65 66 66 66 66 66 67 68 69 71 72 71 70 70 70 69 69 68 68 69 71 74 77 79 80 81 81 80 80 80 79 78 77 76 75 74 73 72 73 73
59 60 61 63 67 67 64 66 68 69 72 70 64 61 65 66 64 62 61 60 58 58 59 58 57 55 54 55 56 57 58 58 57 56 57 58 59 61 62 62 63 63 63 63 64 65 66 66 66 66 66 66 68 69 71 73 73 72 71 70 69 69 68 68 69 72 74 76 78 79 80 80 79 79 79 78 77 76 75 73 72 71 71 72 72 73
60 61 62 64 66 67 67 68 70 73 74 70 65 65 67 67 64 61 60 58 58 60 61 59 57 56 56 56 57 59 60 59 59 60 60 61 62 62 63 63 62 62 63 63 64 64 65 65 65 66 67 68 70 71 72 73 72 72 71 70 69 68 68 70 72 74 76 77 79 80 79 79 78 78 77 76 75 73 72 71 70 71 71 72 73 74
60 61 62 63 64 65 66 68 71 73 73 69 66 67 67 66 63 61 61 60 58 60 62 61 60 59 60 61 61 61 62 62 62 62 62 64 65 65 64 62 61 61 62 63 63 64 64 65 66 67 68 70 71 71 72 71 71 71 70 69 69 69 70 72 74 75 77 78 79 79 78 78 77 76 74 73 72 71 70 69 70 71 72 73 74 75
60 61 62 63 65 66 67 69 70 71 70 68 67 67 66 64 61 61 63 62 60 61 64 64 63 63 64 64 64 63 64 64 64 64 64 65 65 64 62 61 60 61 61 62 63 63 64 65 66 68 69 69 70 70 70 70 69 69 68 68 69 71 72 74 75 76 78 79 79 78 78 77 75 72 71 70 70 69 69 69 70 71 73 74 75 75
61 62 63 64 66 66 65 65 64 66 67 65 63 62 62 60 59 61 65 64 61 63 66 65 65 65 65 65 65 65 65 66 66 65 65 64 63 62 61 59 59 60 60 62 63 64 65 66 66 67 68 68 68 68 67 67 67 67 68 69 70 72 74 75 76 77 79 79 78 77 76 73 71 70 69 69 69 68 69 70 71 72 74 74 75 74
62 62 62 63 63 62 62 62 62 65 66 64 62 62 62 61 60 62 65 64 61 63 66 66 64 65 64 64 64 64 66 67 66 63 61 60 59 59 58 58 58 59 61 63 63 64 64 65 65 66 65 65 65 66 65 66 67 68 69 71 73 74 76 76 77 79 79 78 76 74 72 70 69 68 68 68 68 69 70 71 72 73 74 74 73 69
61 61 61 61 61 60 61 62 63 64 64 63 63 64 63 62 62 62 65 65 62 62 64 63 62 62 62 62 63 64 65 65 63 61 60 59 58 58 58 59 60 61 62 62 62 62 63 63 64 64 64 64 65 65 66 67 69 70 72 73 75 76 76 77 78 78 77 75 73 71 69 68 68 68 68 68 69 70 71 72 73 74 73 71 67 62
59 60 61 61 61 61 61 63 64 64 63 62 62 62 62 62 63 64 65 64 62 62 63 63 63 64 64 65 65 65 65 64 64 63 62 61 60 60 60 60 61 61 61 61 61 61 62 62 62 63 64 65 66 67 68 70 71 73 75 76 76 76 76 76 77 75 73 72 70 69 68 68 68 68 68 69 70 71 73 74 74 72 69 64 61 59
60 60 61 61 61 61 62 63 64 64 62 61 61 61 61 61 63 63 63 63 63 63 63 64 65 65 66 67 67 66 66 65 64 63 62 61 61 61 60 60 60 60 60 60 60 61 61 62 63 64 65 67 68 69 70 72 73 75 76 76 74 74 74 75 74 72 71 70 69 68 68 68 68 69 69 70 72 73 74 74 71 67 62 60 59 59
61 60 61 61 60 60 61 62 62 63 61 60 60 60 61 61 62 63 63 64 64 63 63 63 64 64 65 65 65 65 65 64 63 62 62 62 61 61 61 60 59 59 60 60 61 61 62 64 65 66 67 69 70 71 72 73 74 75 75 73 72 72 73 73 72 71 70 69 69 68 68 68 69 70 71 72 74 74 73 69 65 61 59 59 59 59
61 61 62 61 60 61 62 62 62 61 60 60 60 60 61 61 61 62 62 62 62 62 62 62 62 62 62 62 63 63 62 62 62 62 62 62 61 61 61 61 60 61 62 62 63 64 65 66 67 68 69 70 71 72 73 73 74 74 73 71 71 72 73 72 71 71 70 69 69 69 69 70 71 72 73 74 74 71 67 63 60 59 59 59 60 60
62 62 62 60 59 61 62 62 62 61 60 60 60 59 59 59 59 59 59 59 60 60 61 62 62 62 62 62 62 62 61 62 62 62 62 62 62 62 62 62 63 63 64 64 65 66 67 68 69 70 71 71 72 73 73 72 73 72 70 70 71 72 71 71 70 70 69 69 69 69 70 71 73 74 74 73 70 66 62 60 59 59 59 60 60 61
63 62 62 61 61 61 62 62 62 62 62 61 60 59 59 58 58 58 59 60 60 61 62 62 63 63 63 63 62 62 63 63 63 63 62 62 62 62 63 63 63 64 64 65 66 67 68 69 70 71 71 71 71 71 71 71 71 70 69 70 71 71 70 70 70 69 69 70 70 71 72 73 74 74 73 69 65 61 60 59 59 59 60 60 62 63
63 62 62 63 63 63 63 62 62 62 62 62 61 61 61 61 60 61 61 62 62 63 63 63 63 63 64 64 63 63 63 63 63 62 62 61 62 62 62 63 64 65 66 67 68 69 69 70 70 70 70 70 70 69 70 70 70 69 69 69 69 69 69 69 70 70 70 71 72 73 74 74 74 72 68 64 61 60 60 59 59 59 60 61 63 64
62 62 63 63 63 63 62 62 62 62 61 61 61 61 61 62 62 62 62 62 63 63 62 62 62 62 62 62 62 62 61 61 61 61 60 60 61 61 63 64 65 67 68 69 69 69 70 69 69 69 69 69 69 69 69 69 69 69 69 68 68 69 69 70 70 71 72 72 73 74 75 74 71 67 63 61 60 60 60 59 60 61 62 63 65 66
61 62 62 62 62 61 60 60 60 60 60 60 60 60 60 61 61 60 60 60 60 60 61 61 61 61 61 60 60 59 59 59 59 59 60 61 62 64 65 67 68 68 69 69 69 69 69 69 68 68 67 67 67 68 68 68 68 68 68 68 68 69 70 71 72 72 73 74 75 74 72 69 65 62 60 60 60 60 60 61 62 63 64 65 66 67
60 61 61 61 60 60 59 59 59 60 60 60 60 59 59 59 58 58 58 57 57 58 58 58 59 59 60 60 59 59 60 60 61 61 63 64 65 66 67 67 68 68 68 68 68 68 67 67 67 66 66 66 66 67 67 67 67 68 68 69 70 71 71 73 74 74 75 75 73 70 66 63 61 60 60 60 61 61 62 63 63 64 65 67 68 69
57 59 59 59 59 60 60 60 60 60 60 60 59 59 59 58 57 57 57 57 57 58 58 58 59 60 60 61 61 62 62 63 64 64 65 66 67 67 67 67 67 67 67 67 67 66 65 65 65 65 65 65 66 66 66 66 67 68 69 70 71 73 74 75 76 75 74 71 68 64 61 60 60 60 61 61 61 62 63 64 65 66 67 68 69 70
Wind_Direction
271 271 270 270 271 272 271 272 276 277 277 279 281 282 283 283 283 282 279 276 274 271 269 269 270 271 272 272 270 266 263 264 267 270 269 266 265 266 266 265 264 264 266 267 269 269 266 262 258 254 252 251 251 252 253 255 258 259 259 259 259 260 261 264 266 268 271 275 278 280 282 284 287 290 293 294 295 295 297 302 306 308 309 308 308 308
271 271 272 272 271 271 272 273 275 275 275 278 279 280 281 280 281 280 277 276 273 269 268 269 270 271 272 272 270 268 266 264 265 267 270 270 267 266 266 266 265 264 265 267 269 269 266 262 258 254 251 250 250 251 253 256 258 260 260 260 261 262 263 266 269 270 273 276 279 281 282 284 286 288 291 293 294 295 298 302 305 306 306 306 306 307
270 272 273 271 270 271 273 275 274 273 274 277 278 278 277 277 278 277 275 275 272 269 268 268 269 270 271 271 270 269 268 267 266 268 269 270 269 268 268 266 265 264 264 266 268 268 266 264 258 254 252 250 250 251 253 256 259 260 260 261 263 264 264 266 270 271 273 276 278 280 282 283 285 287 290 292 294 296 299 302 303 303 303 304 305 306
271 272 271 270 270 272 274 274 274 275 275 275 275 275 274 274 275 275 275 274 271 270 269 268 268 269 271 272 270 268 268 268 268 270 270 268 268 268 267 266 265 264 264 266 267 266 265 263 258 254 252 251 251 252 254 256 258 259 260 262 264 265 265 267 270 272 273 275 278 280 281 283 285 287 289 292 294 297 299 301 301 301 301 302 304 306
272 272 271 271 272 274 274 273 273 274 274 273 273 273 273 273 273 274 274 273 271 270 269 269 270 270 271 271 268 267 268 269 270 271 271 269 268 266 266 267 267 265 265 266 265 264 263 261 257 254 252 252 252 253 255 257 259 260 260 262 264 265 266 267 269 271 273 276 278 280 282 284 286 288 290 293 295 298 300 301 300 300 301 302 304 306
272 273 273 273 272 272 272 271 271 271 272 273 273 273 272 273 273 273 273 272 272 270 268 269 271 272 271 269 268 267 266 268 270 272 272 271 269 267 266 267 268 268 267 267 265 264 262 258 255 252 251 252 253 254 257 259 260 261 261 263 265 266 267 269 270 273 275 277 280 282 284 285 287 289 292 294 297 299 301 300 300 301 302 303 304 306
271 272 274 274 271 268 268 269 270 271 272 273 273 274 274 273 272 271 271 272 272 271 269 268 272 275 272 269 271 271 267 265 265 267 270 271 271 269 268 267 269 269 269 268 266 264 261 257 254 251 250 251 253 255 258 260 261 262 263 265 266 268 270 272 274 277 279 281 283 285 286 287 289 292 295 297 299 300 300 300 300 301 302 303 305 306
271 271 271 271 269 268 268 269 271 272 273 273 274 275 274 272 270 268 268 269 271 272 271 270 274 277 275 270 270 270 270 269 268 269 270 270 270 270 269 268 269 270 270 269 267 264 261 257 253 251 250 251 253 257 259 260 262 264 266 267 269 271 274 277 280 282 283 285 286 288 289 291 294 296 297 298 299 299 300 300 300 301 302 303 304 305
271 269 269 269 269 270 270 271 271 272 273 273 273 272 271 271 270 269 268 268 270 271 270 272 277 279 278 276 270 267 269 273 275 276 274 272 271 270 269 269 270 271 271 270 268 264 261 257 254 251 251 253 255 258 260 261 263 266 268 270 273 277 280 282 284 285 286 287 289 291 293 296 297 298 298 298 299 299 299 300 301 302 302 303 304 304
269 269 269 269 270 271 271 271 271 270 270 271 271 270 270 269 269 270 270 271 271 270 271 275 278 279 279 277 272 269 271 275 277 276 276 275 274 272 271 271 270 270 271 271 268 264 260 257 254 253 254 256 258 260 261 263 265 268 271 274 278 282 285 286 287 287 288 290 292 294 296 297 297 297 298 298 299 299 300 300 301 302 303 303 303 302
270 271 270 269 270 271 270 269 268 267 267 268 268 268 269 270 271 271 271 272 271 271 274 278 279 279 278 276 277 277 276 276 276 274 275 275 275 274 273 272 271 269 269 269 267 263 260 257 256 255 256 257 259 260 262 264 267 271 275 279 283 286 288 288 289 290 292 293 294 295 295 295 296 297 298 298 299 299 300 300 301 301 302 301 301 300
269 270 270 269 267 266 266 265 264 264 265 267 268 270 271 270 270 270 269 269 270 273 278 280 279 277 275 277 281 283 282 280 276 273 273 273 273 273 272 271 270 269 268 267 265 262 259 257 256 256 257 258 259 261 264 267 270 275 279 283 286 288 289 291 292 293 294 294 294 294 294 295 296 297 297 298 298 299 299 300 300 300 300 300 300 300
265 265 266 266 264 264 264 264 264 265 267 268 269 270 270 270 270 269 268 269 271 276 279 279 278 275 273 276 281 284 286 285 279 274 273 272 271 270 270 269 268 266 265 264 263 260 257 257 256 257 257 258 260 263 267 271 275 279 283 285 287 289 290 292 294 294 294 294 294 294 294 295 296 297 298 298 298 299 299 299 299 299 300 300 301 300
264 263 263 264 266 266 266 266 267 267 266 265 265 266 267 267 269 270 272 274 275 276 276 276 276 274 274 277 280 282 285 285 283 279 277 275 274 272 270 268 266 264 262 261 260 258 257 257 257 257 258 260 263 267 271 275 278 281 283 285 287 289 291 293 295 295 295 294 294 294 294 295 296 297 298 298 299 299 299 300 300 301 301 302 301 301
264 263 262 263 265 266 266 266 266 264 263 262 264 265 265 266 269 272 275 276 277 277 276 275 274 274 278 281 281 280 281 284 286 284 279 275 273 271 269 267 264 261 260 258 257 256 256 257 257 258 259 262 265 268 272 276 279 282 283 285 287 289 291 294 295 295 294 294 294 294 294 295 297 298 298 298 299 299 300 301 302 302 302 302 301 301
264 264 263 261 261 262 262 263 263 264 264 264 264 264 266 268 270 272 273 275 277 277 276 275 275 277 281 282 280 280 281 284 286 282 278 272 267 266 265 264 262 259 257 256 255 255 256 257 257 258 260 262 265 268 271 275 279 281 283 285 288 291 292 293 294 294 294 294 295 295 296 297 298 298 298 299 300 301 302 303 303 303 303 302 301 301
264 263 262 260 259 259 259 260 262 264 265 265 265 266 269 270 270 271 272 274 276 276 275 276 278 280 282 280 279 282 284 285 284 279 274 269 264 262 260 259 259 258 257 256 255 255 255 256 257 258 259 261 263 266 269 273 278 281 285 287 290 292 292 292 293 294 295 296 297 298 298 298 298 299 299 300 301 302 303 304 304 303 302 302 301 301
261 261 260 260 259 258 259 260 261 263 264 266 267 269 270 270 270 271 273 274 275 276 276 277 278 280 280 279 281 285 286 286 284 278 273 270 267 265 261 258 258 258 258 257 256 256 256 256 257 258 259 260 262 265 269 273 277 282 286 289 291 293 292 292 293 294 296 297 298 299 299 298 299 299 300 301 302 303 304 304 304 303 303 302 302 302
257 259 259 260 259 259 259 259 260 263 266 268 270 271 271 271 271 272 273 274 275 276 277 278 279 279 280 282 286 286 285 285 283 279 275 273 271 268 264 260 259 258 259 259 258 258 257 258 259 259 260 261 263 266 270 274 278 282 286 288 290 291 292 292 293 295 296 297 298 299 299 298 298 299 300 302 303 304 304 304 304 303 303 303 303 302
255 256 257 259 260 259 258 259 262 266 269 270 270 270 269 270 271 272 273 273 274 276 278 280 281 281 282 286 286 284 284 283 282 280 276 273 271 269 266 263 262 261 259 259 259 259 260 260 261 262 263 263 265 268 271 275 278 282 285 287 289 290 291 292 294 295 296 296 298 298 297 297 298 299 301 302 304 305 305 305 304 304 304 304 303 303
253 254 255 257 259 259 260 262 266 269 268 266 266 267 268 270 271 272 273 273 274 277 280 282 282 281 282 284 282 282 284 283 281 279 274 272 271 270 268 266 265 263 262 261 261 262 262 263 264 265 265 266 267 269 273 276 279 281 284 287 289 290 291 292 294 295 296 296 297 297 297 297 298 300 301 303 305 305 306 306 305 305 305 304 304 304
253 254 255 256 256 257 259 262 264 264 264 264 265 266 268 271 274 276 277 279 279 280 281 282 281 279 280 282 282 284 285 283 281 276 271 271 273 271 270 269 267 267 266 266 265 266 266 266 266 266 267 267 268 271 274 278 280 282 285 288 289 291 292 294 295 296 296 296 296 296 296 297 298 300 303 305 306 307 307 307 306 306 305 305 304 304
252 252 252 252 253 254 257 259 261 264 265 265 265 265 269 274 279 281 283 283 281 278 277 277 278 278 280 282 283 285 285 283 280 276 272 272 272 271 269 268 267 267 267 267 267 268 268 268 269 270 270 271 273 275 277 279 281 284 286 289 291 293 294 295 295 296 296 296 296 295 296 297 299 302 305 306 307 308 308 307 307 306 305 305 304 303
251 252 253 254 255 256 258 258 260 263 265 265 268 271 273 275 277 280 281 280 276 274 274 274 275 278 281 282 282 282 283 281 278 275 274 274 273 271 270 269 269 269 269 270 270 271 272 274 275 276 276 276 277 278 280 281 283 286 288 290 292 293 295 295 295 295 295 295 295 295 296 298 301 304 306 308 308 308 308 307 306 306 305 304 303 302
251 252 254 255 255 256 257 257 259 264 267 271 274 274 272 271 273 279 282 278 273 273 273 271 274 280 283 283 281 280 280 279 277 275 275 275 274 272 271 271 271 272 273 274 275 276 278 281 281 280 279 280 281 282 284 285 286 288 289 291 292 293 294 295 295 294 294 294 294 294 297 300 303 305 307 308 308 308 307 306 305 305 304 303 302 301
251 249 250 252 254 255 256 259 263 267 270 272 272 271 271 271 273 279 281 276 273 273 271 271 277 282 282 280 280 281 280 279 278 277 276 274 272 272 272 273 274 275 277 278 280 281 282 283 283 282 283 284 285 286 286 287 288 288 289 290 291 293 294 294 294 293 292 293 293 295 299 302 304 305 307 307 308 307 306 305 304 303 302 302 301 300
252 250 249 250 252 254 257 261 265 267 268 269 269 269 270 270 272 277 278 275 276 275 272 272 276 279 279 278 279 280 280 279 277 275 274 272 271 273 275 276 278 280 281 282 282 282 283 283 284 284 285 286 286 286 287 287 288 288 289 290 291 292 293 293 292 291 291 292 294 297 300 302 304 305 306 307 306 305 304 304 303 302 301 301 300 300
252 252 251 252 254 256 260 263 266 267 267 269 269 269 269 269 271 275 277 277 276 272 272 275 274 274 276 276 276 277 278 276 275 274 274 274 275 277 279 279 281 282 283 283 283 282 283 284 284 285 286 287 287 287 287 287 287 288 289 290 290 291 292 291 290 290 291 293 295 298 301 302 303 305 306 306 305 303 303 302 301 301 300 300 299 299
254 254 256 258 259 261 262 263 265 267 267 268 269 269 269 270 272 277 279 278 272 268 272 275 271 270 272 272 273 275 276 277 278 278 277 277 278 280 281 281 282 282 283 282 282 282 282 283 284 285 286 287 287 287 287 287 288 288 288 289 290 290 290 289 288 289 291 294 296 299 301 302 303 304 305 304 303 302 302 301 300 300 299 299 299 299
259 260 261 263 264 264 264 264 266 268 268 268 268 269 270 272 275 279 278 274 268 267 271 272 270 269 270 272 274 276 277 278 279 279 279 279 280 280 280 281 281 281 281 281 281 281 282 283 283 284 285 285 286 286 288 289 289 289 289 289 289 288 287 287 288 290 292 295 297 299 300 302 303 304 303 302 301 300 300 299 299 299 299 298 298 298
262 262 262 264 267 266 265 267 269 269 268 267 266 267 269 272 275 277 278 274 269 269 271 271 269 268 269 273 275 276 275 276 276 277 279 280 280 280 280 280 280 280 280 280 280 281 282 283 284 284 284 284 285 287 289 289 289 289 288 288 287 286 286 287 290 292 294 296 297 299 300 302 303 302 302 300 300 299 299 298 298 298 298 298 298 298
260 260 261 264 267 267 265 268 269 268 267 265 264 265 268 273 276 279 281 278 271 269 270 267 265 267 271 273 271 270 271 274 276 278 278 278 279 279 279 279 279 279 279 279 280 281 282 283 283 284 284 285 286 287 288 288 288 287 286 286 285 286 287 289 291 293 294 296 298 299 301 302 301 301 300 299 298 298 298 298 298 298 297 297 297 297
260 261 262 264 266 267 266 266 266 266 265 265 266 268 271 275 277 278 279 276 271 269 267 264 263 266 268 267 265 266 271 274 276 278 278 278 278 277 277 278 279 279 280 281 282 282 282 282 283 283 284 285 286 287 287 286 286 285 285 285 286 287 289 290 291 293 295 297 298 300 301 301 300 299 298 297 297 297 297 297 297 297 297 297 297 298
259 260 262 263 264 265 265 265 264 263 263 266 270 271 272 274 274 273 273 271 268 266 265 263 263 264 264 265 266 268 270 272 273 274 276 276 277 277 278 279 280 280 281 281 281 282 282 282 283 284 285 286 286 285 285 284 284 284 285 286 287 288 289 290 292 294 296 298 299 300 300 299 298 297 297 297 297 297 297 297 297 296 296 297 297 298
256 258 259 260 262 263 263 263 263 263 264 268 271 271 271 272 270 267 265 264 262 262 264 265 265 266 266 266 266 266 267 269 270 272 274 275 275 276 277 278 278 279 280 280 281 281 281 282 283 284 284 284 284 283 283 283 284 284 285 286 287 287 288 290 293 295 297 298 299 299 298 297 296 296 296 297 297 297 296 296 296 296 296 297 298 299
254 255 257 258 259 261 262 262 263 264 266 268 268 268 268 268 266 262 261 260 259 261 263 265 266 267 267 266 267 268 269 270 271 272 274 275 275 276 277 277 278 278 279 280 280 280 280 281 281 282 281 281 281 281 282 283 283 284 285 285 286 287 289 291 294 296 297 298 297 297 296 296 296 296 296 296 296 295 295 295 295 296 296 297 298 298
254 255 256 258 259 260 262 263 264 265 265 265 266 266 265 263 262 261 261 260 258 259 262 264 265 267 268 269 270 271 272 273 274 275 275 275 275 276 277 277 277 278 278 278 278 278 279 279 279 279 279 280 280 281 282 282 282 283 283 284 286 288 291 293 295 297 297 296 296 295 295 295 296 296 295 295 294 294 295 295 295 296 297 297 298 297
254 255 257 258 259 260 260 262 263 263 263 264 265 264 263 262 262 262 262 261 259 260 262 264 265 266 268 269 270 272 273 273 274 275 275 275 275 276 276 276 276 276 276 276 276 276 277 277 277 278 279 280 280 280 280 280 280 281 283 285 288 291 293 295 296 296 295 295 294 295 295 295 295 294 294 293 294 294 294 295 295 296 297 297 297 296
254 255 256 257 258 259 259 260 261 261 263 265 264 263 263 264 264 264 265 264 262 262 263 265 266 267 268 269 270 270 271 272 274 275 275 274 275 275 274 274 274 274 274 275 275 276 276 277 278 279 279 279 278 277 277 278 280 282 286 289 291 293 295 295 295 294 294 294 294 294 294 294 293 293 293 293 293 294 294 295 296 296 296 296 295 295
254 255 255 256 257 258 259 260 261 262 263 265 264 264 265 265 265 265 266 266 266 266 265 267 268 268 268 269 269 270 271 272 274 274 273 273 273 273 272 272 273 273 274 275 275 276 277 278 278 277 277 275 275 275 277 279 283 286 290 292 293 294 294 293 293 293 293 293 293 293 293 292 292 292 292 293 293 294 295 296 296 296 295 295 295 295
253 254 255 256 257 258 260 261 262 263 263 264 265 265 265 265 265 265 266 268 268 267 268 269 269 269 270 271 271 272 273 273 274 274 274 273 273 272 271 271 272 273 274 274 275 275 276 275 274 274 273 274 275 278 280 284 287 290 292 293 293 293 292 292 292 292 292 292 292 292 292 291 291 292 292 293 294 295 295 295 295 295 294 294 294 295
254 254 254 255 257 259 260 261 263 263 262 263 264 264 265 266 267 268 269 270 269 269 270 270 271 271 272 273 273 274 274 274 274 274 274 272 271 271 271 271 271 272 272 273 273 273 272 272 272 273 275 277 280 283 286 288 291 292 293 293 292 291 291 292 292 291 291 291 291 291 291 291 291 292 293 294 294 295 295 295 294 294 293 294 294 295
255 255 255 256 257 259 259 260 262 263 263 263 265 266 267 268 268 269 269 269 269 270 270 271 272 272 272 273 273 274 274 274 273 273 272 271 270 270 270 270 271 271 272 272 272 272 272 273 275 277 279 282 285 288 290 291 292 292 292 291 290 290 291 291 291 290 291 290 290 290 290 291 291 292 293 294 295 295 294 294 293 293 293 294 294 295
256 257 257 257 258 258 259 260 261 263 264 265 266 268 268 268 268 268 268 268 269 270 270 270 271 271 271 272 272 272 272 272 271 270 270 269 268 269 269 270 271 271 272 272 273 274 275 277 279 282 285 287 289 290 291 291 291 291 291 290 289 289 290 290 289 289 289 289 289 290 290 291 292 293 294 295 295 294 293 292 292 292 293 293 294 295
260 260 260 259 259 259 260 262 263 264 265 266 267 268 268 267 267 267 267 268 268 268 268 268 268 268 269 269 270 270 269 268 268 267 267 267 267 268 269 270 271 271 272 273 275 277 279 282 284 287 289 290 291 291 291 291 290 290 289 288 288 288 288 288 288 288 288 289 289 290 291 292 293 294 295 294 293 292 291 290 291 292 293 294 295 295
263 262 260 260 260 261 262 263 264 265 266 267 267 266 266 266 265 265 265 266 266 266 266 266 267 267 267 268 268 268 267 266 266 266 266 267 268 268 269 271 272 273 275 277 280 282 284 286 288 290 290 290 290 290 289 289 289 288 287 287 287 287 287 287 288 288 289 289 289 290 292 293 294 294 294 292 291 290 290 290 291 292 293 294 295 295
262 262 261 261 263 264 265 265 266 266 266 266 265 265 265 264 264 265 265 266 266 266 266 266 266 266 266 266 266 266 265 265 265 266 267 268 269 271 272 274 276 278 280 282 284 286 288 289 290 290 290 289 288 288 288 288 288 287 286 286 286 286 287 287 287 288 289 289 290 292 293 294 294 293 291 290 289 289 290 290 291 292 293 294 294 294
261 261 262 262 263 264 265 266 266 266 265 265 265 264 264 264 264 264 265 265 265 265 265 265 265 265 265 265 264 264 264 265 265 267 268 270 272 274 276 278 280 282 284 286 287 288 289 290 289 289 289 288 287 287 287 287 286 286 286 286 286 286 286 287 287 288 289 291 292 293 294 293 292 290 289 288 289 290 290 291 291 292 293 293 294 294
259 260 261 261 262 262 262 263 263 262 262 263 263 263 263 263 263 263 263 262 262 262 263 263 263 263 263 262 263 263 265 266 268 270 272 275 276 278 280 282 284 285 286 287 288 289 289 289 288 288 287 286 286 286 286 286 285 285 285 285 285 285 286 287 288 290 291 292 293 293 292 291 289 288 288 288 289 289 290 291 292 292 293 293 293 294
258 259 258 258 258 258 258 258 258 258 259 260 261 261 261 261 261 260 260 259 259 259 260 260 261 261 262 263 264 266 269 271 273 275 277 279 281 282 283 285 286 286 287 287 288 288 288 287 287 286 286 285 285 285 285 285 285 285 285 285 285 286 287 288 290 291 292 292 292 291 290 288 287 287 288 289 290 290 291 292 292 292 293 293 293 294
255 255 255 255 255 255 255 255 256 256 257 257 257 258 258 258 258 258 259 259 259 259 260 261 262 264 266 269 271 273 275 277 279 280 281 283 283 284 285 286 286 287 287 287 287 286 285 285 284 284 283 283 284 284 284 284 285 285 285 286 287 288 289 290 291 291 291 290 289 288 287 287 287 288 289 290 290 291 291 292 292 292 293 293 293 293
Height
5837 5838 5839 5840 5841 5841 5840 5839 5838 5838 5837 5837 5838 5838 5838 5838 5838 5839 5837 5837 5838 5836 5836 5837 5836 5838 5840 5840 5839 5839 5841 5842 5842 5841 5841 5842 5843 5842 5842 5842 5842 5843 5843 5842 5842 5843 5843 5843 5843 5843 5843 5843 5843 5844 5844 5844 5843 5843 5843 5843 5843 5843 5843 5843 5843 5843 5843 5843 5843 5842 5842 5841 5840 5840 5839 5838 5837 5836 5835 5833 5832 5831 5830 5829 5828 5827
5834 5834 5836 5838 5837 5836 5835 5836 5836 5835 5833 5834 5835 5835 5835 5835 5835 5835 5833 5833 5834 5832 5833 5834 5832 5834 5836 5836 5836 5836 5837 5839 5839 5838 5838 5838 5839 5839 5838 5838 5839 5840 5840 5839 5839 5840 5839 5839 5840 5840 5840 5840 5840 5840 5840 5841 5840 5840 5840 5840 5840 5840 5840 5840 5840 5840 5840 5840 5839 5839 5838 5837 5837 5836 5835 5834 5833 5832 5830 5829 5828 5827 5826 5825 5824 5823
5831 5831 5833 5833 5832 5832 5832 5832 5832 5831 5830 5830 5831 5832 5831 5831 5831 5830 5829 5829 5830 5829 5830 5831 5828 5830 5833 5833 5833 5833 5833 5835 5836 5836 5835 5834 5834 5835 5835 5834 5835 5836 5837 5836 5836 5836 5836 5836 5836 5836 5836 5837 5837 5837 5837 5837 5837 5837 5837 5837 5836 5836 5836 5836 5836 5836 5836 5836 5835 5835 5834 5834 5833 5832 5831 5830 5829 5828 5826 5824 5823 5822 5821 5820 5819 5817
5827 5828 5828 5828 5828 5829 5829 5828 5827 5827 5827 5827 5827 5827 5827 5828 5827 5826 5825 5825 5825 5825 5826 5826 5824 5826 5830 5830 5830 5830 5830 5831 5832 5832 5832 5830 5831 5832 5831 5830 5831 5833 5833 5833 5833 5833 5832 5832 5832 5832 5833 5833 5834 5834 5834 5834 5834 5834 5833 5833 5833 5833 5833 5833 5833 5833 5832 5832 5831 5831 5830 5830 5829 5828 5827 5826 5824 5823 5821 5819 5818 5817 5816 5815 5813 5812
5822 5823 5822 5824 5825 5825 5825 5824 5823 5823 5822 5823 5823 5823 5822 5823 5823 5823 5822 5820 5821 5822 5822 5822 5819 5821 5827 5826 5826 5828 5827 5827 5828 5829 5828 5827 5827 5828 5828 5827 5827 5829 5829 5829 5829 5829 5829 5829 5828 5828 5829 5829 5830 5830 5830 5830 5830 5830 5830 5830 5830 5830 5830 5830 5830 5829 5829 5828 5828 5827 5826 5826 5825 5824 5822 5821 5819 5817 5816 5814 5813 5811 5810 5809 5807 5806
5818 5817 5817 5820 5822 5821 5820 5819 5819 5818 5818 5818 5819 5819 5818 5819 5819 5818 5818 5815 5815 5817 5818 5818 5814 5816 5823 5822 5822 5825 5825 5824 5825 5825 5824 5823 5823 5824 5824 5824 5823 5824 5825 5825 5825 5825 5825 5825 5825 5825 5825 5825 5826 5826 5826 5826 5826 5826 5826 5826 5826 5826 5826 5826 5826 5826 5826 5825 5824 5824 5823 5822 5820 5819 5817 5816 5814 5812 5810 5809 5807 5806 5804 5803 5801 5799
5813 5812 5813 5815 5816 5817 5816 5815 5815 5814 5814 5814 5814 5815 5814 5815 5815 5814 5814 5812 5811 5812 5812 5813 5811 5810 5816 5820 5820 5821 5821 5821 5823 5823 5821 5820 5820 5820 5820 5820 5820 5820 5821 5821 5821 5821 5821 5821 5821 5821 5821 5822 5822 5822 5822 5822 5822 5822 5823 5823 5823 5823 5823 5823 5823 5822 5822 5821 5820 5820 5818 5817 5816 5814 5812 5810 5809 5807 5805 5804 5802 5800 5798 5797 5795 5793
5808 5809 5809 5810 5810 5811 5812 5812 5811 5810 5809 5809 5810 5811 5810 5810 5810 5810 5810 5808 5807 5807 5805 5808 5809 5805 5807 5816 5820 5817 5815 5817 5819 5819 5818 5816 5816 5816 5816 5816 5816 5817 5817 5817 5817 5817 5817 5817 5817 5817 5817 5818 5818 5818 5819 5819 5819 5819 5819 5819 5819 5819 5819 5819 5819 5818 5817 5817 5816 5815 5813 5812 5810 5809 5807 5805 5804 5802 5800 5798 5797 5795 5793 5791 5789 5787
5803 5803 5804 5805 5805 5806 5807 5808 5808 5806 5805 5805 5806 5806 5805 5805 5805 5805 5805 5804 5803 5801 5799 5804 5808 5802 5800 5809 5815 5813 5812 5813 5815 5815 5812 5811 5812 5812 5812 5812 5813 5813 5813 5813 5813 5813 5813 5813 5813 5813 5813 5814 5814 5815 5815 5815 5815 5815 5815 5815 5815 5815 5815 5814 5814 5813 5813 5812 5811 5809 5808 5807 5805 5804 5802 5800 5799 5797 5795 5793 5791 5789 5787 5785 5783 5781
5797 5799 5801 5801 5801 5802 5803 5804 5803 5802 5800 5800 5801 5801 5801 5800 5800 5801 5800 5800 5799 5794 5795 5801 5805 5801 5796 5801 5807 5809 5811 5812 5811 5810 5807 5807 5807 5807 5808 5808 5808 5808 5808 5808 5808 5808 5808 5809 5809 5809 5810 5810 5810 5811 5811 5811 5811 5811 5811 5811 5810 5810 5810 5809 5809 5808 5808 5807 5805 5804 5803 5801 5800 5798 5797 5795 5793 5791 5789 5787 5786 5784 5782 5780 5778 5776
5793 5794 5796 5797 5798 5798 5799 5799 5798 5798 5796 5796 5796 5796 5797 5796 5796 5797 5796 5796 5792 5788 5793 5799 5801 5798 5792 5793 5800 5803 5807 5809 5807 5806 5804 5803 5802 5802 5803 5804 5804 5803 5804 5804 5804 5804 5804 5805 5805 5805 5806 5806 5806 5806 5806 5806 5806 5806 5806 5806 5806 5805 5805 5805 5804 5803 5802 5801 5800 5799 5797 5796 5794 5793 5791 5790 5788 5786 5784 5782 5780 5778 5776 5774 5772 5770
5790 5790 5790 5792 5793 5793 5793 5793 5793 5793 5793 5793 5792 5793 5793 5792 5792 5792 5791 5790 5786 5785 5791 5794 5796 5794 5787 5789 5795 5796 5799 5803 5803 5801 5799 5799 5798 5798 5798 5799 5799 5798 5799 5799 5799 5800 5800 5801 5801 5801 5802 5802 5802 5802 5802 5802 5802 5802 5802 5801 5801 5801 5800 5800 5799 5798 5797 5796 5795 5793 5792 5791 5789 5787 5786 5784 5782 5780 5778 5776 5774 5772 5770 5768 5766 5763
5785 5786 5786 5786 5787 5788 5789 5789 5789 5789 5790 5790 5789 5789 5789 5787 5786 5785 5785 5785 5784 5785 5787 5787 5788 5786 5783 5787 5792 5791 5792 5795 5796 5796 5795 5794 5794 5794 5794 5794 5794 5794 5794 5794 5795 5795 5796 5796 5797 5797 5797 5797 5797 5798 5798 5798 5797 5797 5797 5797 5796 5796 5796 5795 5794 5793 5792 5791 5789 5788 5786 5785 5783 5781 5779 5777 5776 5774 5772 5770 5768 5766 5763 5761 5758 5755
5779 5781 5782 5782 5783 5785 5785 5785 5785 5786 5786 5784 5784 5784 5784 5783 5781 5780 5781 5781 5781 5782 5782 5781 5779 5777 5778 5785 5789 5789 5789 5788 5789 5791 5790 5789 5789 5788 5789 5789 5789 5789 5789 5790 5790 5791 5792 5792 5793 5793 5793 5793 5793 5793 5793 5793 5793 5792 5792 5792 5792 5791 5790 5790 5789 5787 5786 5785 5783 5782 5780 5778 5776 5775 5773 5771 5769 5767 5765 5763 5761 5758 5756 5753 5749 5746
5774 5775 5778 5779 5780 5780 5780 5781 5780 5779 5779 5779 5780 5779 5778 5779 5778 5777 5777 5776 5775 5776 5775 5774 5772 5771 5775 5780 5783 5785 5785 5783 5784 5785 5785 5785 5784 5783 5783 5783 5784 5784 5785 5785 5786 5787 5788 5788 5789 5789 5789 5789 5789 5789 5789 5788 5788 5788 5788 5787 5787 5786 5785 5784 5783 5782 5780 5779 5777 5776 5774 5772 5770 5768 5766 5764 5762 5760 5758 5755 5753 5750 5747 5744 5741 5738
5769 5770 5773 5774 5775 5775 5775 5775 5774 5773 5773 5774 5775 5773 5773 5775 5776 5774 5773 5772 5771 5770 5767 5767 5767 5768 5772 5774 5775 5778 5780 5781 5780 5779 5779 5780 5779 5778 5778 5778 5779 5779 5780 5781 5782 5783 5783 5784 5784 5784 5784 5784 5784 5784 5784 5783 5783 5783 5783 5782 5782 5781 5780 5779 5778 5776 5775 5773 5771 5770 5767 5765 5763 5761 5759 5757 5755 5752 5750 5748 5745 5742 5739 5736 5733 5729
5763 5764 5766 5767 5769 5770 5770 5770 5769 5768 5768 5768 5769 5770 5770 5772 5772 5770 5769 5768 5767 5764 5761 5762 5763 5765 5767 5767 5770 5772 5774 5776 5775 5774 5774 5773 5773 5774 5774 5774 5774 5775 5776 5777 5778 5778 5779 5779 5779 5779 5779 5779 5779 5779 5778 5778 5778 5778 5778 5777 5776 5775 5774 5773 5772 5770 5769 5767 5765 5763 5761 5758 5756 5754 5751 5749 5747 5744 5742 5739 5737 5733 5730 5727 5724 5721
5758 5757 5758 5760 5762 5764 5765 5765 5764 5762 5762 5763 5765 5767 5767 5767 5766 5765 5764 5763 5762 5758 5756 5757 5758 5760 5760 5761 5765 5768 5769 5770 5770 5769 5768 5768 5769 5770 5770 5770 5770 5771 5772 5773 5774 5774 5774 5775 5775 5774 5775 5774 5774 5773 5773 5773 5773 5772 5772 5771 5770 5769 5768 5766 5765 5764 5762 5760 5758 5756 5753 5751 5748 5746 5744 5741 5739 5737 5734 5731 5728 5725 5721 5718 5715 5711
5752 5751 5752 5753 5755 5758 5759 5759 5758 5757 5758 5760 5761 5762 5762 5761 5760 5761 5760 5758 5757 5754 5751 5751 5753 5753 5755 5758 5761 5762 5764 5765 5764 5764 5764 5764 5765 5765 5766 5766 5767 5768 5769 5769 5769 5769 5770 5770 5770 5770 5770 5769 5769 5768 5768 5767 5767 5767 5766 5765 5764 5762 5761 5760 5758 5757 5755 5753 5750 5748 5746 5743 5741 5738 5736 5734 5731 5729 5726 5723 5719 5716 5712 5709 5706 5702
5747 5745 5745 5746 5748 5751 5752 5753 5754 5755 5756 5757 5756 5755 5755 5755 5755 5755 5756 5754 5752 5750 5747 5747 5747 5747 5750 5753 5754 5754 5757 5760 5760 5760 5760 5760 5760 5760 5761 5762 5763 5764 5764 5764 5764 5764 5765 5765 5765 5765 5765 5765 5764 5763 5762 5762 5762 5761 5760 5759 5757 5755 5754 5753 5751 5749 5747 5745 5743 5740 5738 5735 5733 5731 5728 5726 5723 5720 5717 5714 5710 5707 5703 5700 5696 5692
5739 5739 5739 5740 5742 5744 5746 5749 5751 5751 5751 5750 5749 5749 5749 5750 5750 5749 5749 5749 5749 5747 5746 5743 5739 5740 5744 5746 5746 5747 5751 5754 5756 5756 5755 5755 5755 5755 5756 5757 5758 5759 5759 5759 5759 5760 5760 5760 5760 5761 5760 5759 5758 5757 5757 5757 5756 5755 5753 5752 5750 5748 5747 5745 5743 5742 5739 5737 5735 5732 5730 5728 5725 5723 5721 5718 5715 5711 5708 5704 5701 5697 5694 5690 5687 5683
5734 5734 5735 5735 5736 5738 5740 5744 5745 5744 5744 5744 5744 5744 5743 5745 5746 5745 5744 5745 5745 5744 5743 5739 5732 5732 5738 5739 5739 5741 5744 5748 5750 5751 5751 5751 5750 5750 5751 5752 5752 5753 5753 5754 5754 5755 5755 5755 5755 5755 5755 5754 5753 5752 5751 5751 5749 5748 5746 5744 5743 5741 5739 5738 5736 5733 5731 5729 5727 5724 5722 5720 5717 5715 5712 5709 5705 5702 5698 5695 5691 5688 5685 5681 5677 5674
5728 5727 5727 5727 5729 5732 5734 5736 5737 5737 5738 5738 5738 5739 5740 5741 5742 5741 5740 5741 5739 5737 5736 5734 5726 5725 5732 5735 5735 5735 5737 5741 5744 5745 5746 5746 5745 5745 5746 5746 5746 5746 5747 5747 5748 5748 5748 5749 5749 5748 5748 5747 5746 5745 5745 5743 5742 5740 5738 5737 5735 5733 5731 5729 5727 5725 5723 5721 5719 5716 5714 5711 5709 5705 5702 5699 5696 5692 5689 5686 5682 5679 5676 5672 5668 5664
5721 5720 5721 5723 5724 5726 5728 5729 5730 5730 5730 5731 5733 5737 5738 5738 5737 5736 5735 5734 5732 5730 5730 5727 5721 5721 5727 5730 5730 5731 5732 5733 5736 5739 5740 5740 5740 5739 5739 5740 5740 5740 5740 5740 5741 5742 5741 5742 5741 5741 5740 5739 5738 5738 5737 5736 5734 5732 5730 5728 5726 5725 5723 5721 5719 5717 5715 5713 5710 5708 5705 5702 5699 5696 5693 5689 5686 5683 5680 5676 5673 5670 5667 5663 5659 5655
5714 5715 5716 5716 5718 5719 5720 5721 5722 5724 5726 5727 5731 5732 5730 5731 5730 5728 5729 5728 5724 5725 5725 5719 5715 5720 5725 5723 5722 5725 5727 5727 5729 5732 5733 5734 5733 5733 5733 5734 5733 5733 5733 5734 5734 5735 5734 5734 5734 5733 5732 5731 5731 5730 5729 5727 5725 5723 5722 5720 5719 5717 5715 5713 5711 5709 5707 5705 5702 5700 5697 5693 5690 5687 5683 5680 5677 5674 5671 5667 5664 5661 5658 5654 5650 5645
5706 5706 5708 5709 5710 5711 5712 5715 5717 5720 5721 5722 5724 5724 5722 5724 5723 5721 5722 5719 5716 5718 5718 5713 5712 5719 5721 5718 5716 5718 5721 5722 5723 5724 5726 5726 5726 5726 5727 5727 5727 5726 5726 5727 5727 5727 5726 5726 5725 5724 5723 5723 5722 5722 5720 5719 5717 5715 5714 5713 5711 5709 5707 5705 5703 5701 5699 5697 5694 5691 5688 5684 5681 5678 5675 5672 5669 5665 5662 5658 5655 5652 5648 5644 5640 5636
5696 5697 5700 5702 5703 5704 5708 5712 5712 5712 5713 5713 5716 5717 5716 5716 5716 5714 5712 5711 5711 5711 5709 5707 5711 5714 5715 5714 5713 5713 5714 5715 5717 5717 5717 5718 5718 5719 5720 5719 5719 5719 5718 5719 5719 5719 5718 5717 5716 5716 5715 5715 5714 5714 5712 5710 5709 5708 5706 5705 5703 5701 5699 5697 5695 5693 5691 5688 5686 5683 5679 5676 5672 5669 5667 5664 5660 5656 5653 5650 5646 5642 5638 5634 5630 5626
5688 5688 5692 5695 5696 5700 5706 5708 5706 5704 5705 5706 5706 5707 5708 5709 5709 5706 5703 5705 5708 5703 5699 5704 5709 5707 5709 5710 5709 5708 5708 5708 5709 5710 5710 5711 5711 5712 5712 5711 5711 5710 5710 5710 5710 5709 5709 5708 5708 5708 5708 5707 5706 5705 5704 5702 5701 5700 5698 5697 5694 5692 5691 5689 5687 5685 5682 5680 5677 5674 5670 5667 5664 5662 5659 5656 5651 5647 5644 5640 5637 5632 5628 5624 5621 5617
5681 5682 5687 5689 5689 5694 5700 5701 5699 5697 5698 5698 5697 5698 5700 5701 5701 5700 5698 5700 5701 5694 5693 5701 5702 5699 5704 5706 5703 5703 5702 5701 5702 5703 5704 5705 5705 5704 5704 5703 5703 5702 5702 5702 5701 5700 5700 5700 5700 5700 5700 5699 5698 5697 5695 5694 5693 5691 5690 5688 5686 5684 5682 5680 5678 5676 5674 5672 5669 5666 5662 5659 5656 5653 5650 5646 5642 5638 5635 5631 5627 5623 5619 5615 5612 5608
5674 5677 5683 5681 5680 5686 5691 5692 5692 5689 5689 5690 5690 5691 5692 5693 5694 5693 5691 5693 5692 5687 5690 5696 5694 5693 5700 5701 5698 5699 5698 5696 5696 5695 5696 5697 5697 5697 5696 5695 5695 5694 5694 5694 5693 5692 5692 5692 5692 5692 5691 5690 5689 5688 5687 5686 5684 5683 5681 5680 5678 5676 5674 5672 5670 5668 5666 5664 5661 5657 5654 5651 5648 5644 5641 5637 5633 5629 5626 5622 5618 5614 5610 5607 5603 5599
5669 5672 5676 5673 5671 5676 5682 5683 5682 5681 5680 5681 5683 5685 5687 5687 5685 5683 5683 5687 5686 5683 5687 5690 5686 5688 5695 5696 5693 5693 5691 5689 5688 5688 5689 5689 5689 5689 5688 5687 5687 5686 5686 5686 5685 5685 5685 5684 5684 5684 5683 5682 5681 5680 5679 5678 5677 5675 5673 5672 5670 5667 5665 5664 5662 5660 5657 5655 5652 5649 5645 5642 5638 5635 5631 5627 5623 5620 5616 5612 5609 5605 5601 5598 5594 5590
5662 5664 5667 5667 5662 5666 5676 5676 5672 5673 5672 5669 5674 5680 5682 5681 5678 5675 5677 5681 5680 5679 5682 5682 5679 5684 5691 5690 5686 5685 5683 5682 5682 5683 5683 5683 5682 5681 5680 5680 5680 5679 5679 5678 5678 5678 5678 5677 5676 5676 5675 5674 5673 5673 5672 5670 5669 5667 5665 5663 5661 5659 5657 5655 5653 5651 5648 5646 5643 5640 5637 5633 5629 5625 5621 5618 5614 5611 5607 5603 5600 5597 5593 5589 5586 5582
5655 5656 5659 5660 5654 5658 5669 5668 5663 5665 5659 5655 5667 5678 5678 5676 5673 5669 5670 5673 5673 5673 5673 5672 5674 5680 5683 5680 5677 5678 5677 5677 5677 5677 5677 5676 5676 5674 5673 5673 5673 5673 5672 5672 5672 5672 5671 5670 5669 5668 5667 5666 5666 5665 5664 5662 5661 5659 5657 5655 5652 5650 5648 5646 5644 5642 5639 5637 5634 5631 5627 5623 5619 5615 5612 5609 5605 5602 5598 5595 5592 5588 5584 5581 5577 5573
5648 5649 5651 5652 5647 5649 5659 5659 5654 5650 5645 5649 5666 5673 5669 5668 5666 5662 5663 5666 5666 5664 5663 5664 5668 5672 5673 5672 5672 5672 5671 5671 5670 5670 5669 5669 5669 5667 5667 5667 5667 5666 5667 5666 5666 5665 5664 5663 5662 5660 5660 5659 5658 5657 5655 5654 5652 5650 5648 5646 5644 5642 5640 5638 5636 5633 5630 5627 5625 5622 5618 5614 5610 5607 5603 5599 5596 5593 5590 5586 5583 5579 5575 5572 5568 5565
5640 5642 5643 5644 5641 5641 5648 5649 5640 5634 5638 5651 5661 5662 5660 5660 5657 5654 5655 5659 5660 5657 5656 5658 5661 5664 5665 5665 5664 5663 5663 5663 5663 5663 5663 5663 5661 5660 5660 5660 5660 5660 5660 5659 5658 5657 5655 5654 5653 5652 5652 5651 5649 5648 5647 5645 5643 5641 5639 5638 5636 5634 5632 5630 5627 5624 5621 5618 5615 5612 5608 5605 5601 5598 5594 5590 5587 5584 5581 5578 5574 5570 5566 5563 5560 5557
5633 5634 5635 5636 5634 5634 5636 5634 5628 5628 5637 5646 5649 5651 5652 5650 5649 5647 5646 5651 5656 5652 5649 5651 5654 5655 5654 5654 5655 5655 5655 5655 5655 5657 5658 5655 5653 5653 5653 5654 5654 5653 5652 5651 5650 5649 5647 5647 5646 5645 5644 5642 5640 5639 5638 5636 5634 5633 5631 5629 5628 5626 5624 5621 5619 5616 5612 5609 5606 5602 5599 5596 5592 5589 5585 5582 5579 5576 5573 5569 5565 5561 5558 5555 5552 5549
5625 5626 5627 5626 5625 5626 5625 5623 5622 5624 5629 5636 5640 5643 5643 5642 5643 5641 5637 5643 5650 5646 5641 5643 5646 5645 5645 5645 5647 5647 5647 5647 5647 5649 5650 5647 5645 5646 5646 5646 5646 5644 5644 5643 5642 5641 5640 5639 5638 5637 5635 5634 5632 5631 5629 5627 5626 5624 5623 5621 5619 5617 5615 5613 5610 5607 5603 5600 5596 5592 5589 5587 5584 5580 5577 5574 5571 5568 5564 5560 5557 5553 5550 5547 5543 5540
5618 5618 5620 5618 5616 5619 5618 5615 5615 5614 5617 5629 5635 5634 5633 5634 5636 5633 5627 5633 5643 5640 5633 5635 5637 5636 5637 5637 5638 5638 5638 5637 5638 5641 5642 5638 5637 5638 5637 5637 5636 5635 5635 5634 5634 5633 5633 5631 5630 5628 5627 5626 5624 5622 5621 5619 5618 5617 5615 5613 5611 5609 5606 5603 5600 5597 5594 5590 5587 5583 5581 5578 5575 5572 5568 5565 5563 5559 5555 5552 5548 5545 5542 5538 5534 5531
5609 5610 5612 5609 5606 5610 5610 5607 5606 5605 5610 5623 5627 5624 5624 5626 5626 5623 5617 5622 5634 5633 5626 5627 5628 5628 5630 5630 5629 5630 5629 5627 5631 5635 5634 5630 5628 5628 5627 5627 5627 5627 5626 5626 5625 5625 5623 5622 5621 5620 5619 5618 5616 5614 5613 5611 5610 5608 5606 5604 5602 5599 5597 5594 5590 5587 5584 5581 5578 5574 5572 5569 5566 5563 5560 5557 5554 5550 5547 5543 5540 5537 5533 5529 5525 5522
5601 5602 5603 5600 5599 5602 5601 5598 5598 5599 5605 5614 5616 5614 5616 5617 5617 5614 5608 5614 5625 5624 5617 5619 5620 5620 5621 5621 5620 5622 5621 5620 5624 5626 5624 5621 5620 5619 5618 5619 5618 5618 5618 5617 5616 5615 5614 5613 5612 5611 5610 5609 5608 5607 5605 5603 5602 5600 5597 5595 5592 5590 5587 5583 5580 5577 5574 5571 5569 5565 5563 5560 5557 5554 5551 5548 5545 5541 5538 5535 5531 5528 5524 5521 5517 5514
5594 5594 5594 5593 5593 5595 5594 5591 5591 5593 5598 5605 5607 5606 5607 5607 5606 5604 5603 5609 5615 5612 5609 5611 5611 5611 5612 5611 5611 5613 5612 5612 5614 5615 5614 5613 5611 5610 5610 5610 5610 5609 5609 5608 5607 5606 5606 5605 5604 5603 5602 5601 5599 5598 5596 5595 5593 5590 5588 5585 5582 5579 5576 5573 5570 5567 5565 5562 5559 5556 5554 5551 5548 5545 5542 5539 5536 5533 5530 5526 5522 5519 5516 5512 5509 5506
5587 5587 5585 5586 5588 5588 5587 5585 5583 5584 5592 5598 5597 5597 5599 5598 5596 5597 5600 5602 5603 5603 5603 5602 5601 5602 5603 5602 5602 5603 5602 5603 5604 5605 5605 5605 5603 5602 5601 5601 5601 5601 5600 5599 5599 5598 5597 5596 5595 5594 5593 5592 5590 5589 5587 5586 5583 5580 5578 5575 5571 5568 5565 5563 5560 5558 5556 5553 5550 5547 5545 5542 5539 5537 5533 5531 5528 5524 5521 5517 5513 5510 5507 5504 5501 5498
5580 5579 5577 5580 5583 5582 5580 5578 5575 5577 5585 5590 5588 5588 5591 5591 5589 5591 5592 5592 5593 5595 5596 5594 5593 5594 5594 5594 5594 5594 5594 5595 5596 5596 5597 5596 5595 5594 5592 5592 5592 5591 5591 5591 5590 5589 5588 5587 5586 5585 5584 5582 5581 5579 5578 5576 5573 5570 5567 5564 5560 5558 5556 5553 5551 5549 5547 5544 5541 5539 5536 5533 5531 5528 5525 5522 5518 5515 5511 5508 5504 5501 5499 5496 5493 5490
5572 5571 5570 5574 5577 5574 5571 5571 5570 5572 5578 5581 5579 5581 5583 5582 5582 5583 5583 5584 5586 5587 5587 5587 5586 5586 5586 5587 5586 5586 5587 5587 5587 5588 5588 5587 5586 5586 5584 5584 5583 5582 5582 5582 5581 5580 5579 5577 5576 5576 5574 5573 5571 5569 5567 5566 5563 5560 5558 5553 5550 5548 5546 5544 5542 5540 5538 5535 5532 5530 5527 5524 5521 5519 5516 5512 5509 5505 5502 5499 5496 5493 5491 5488 5485 5482
5563 5564 5564 5567 5568 5565 5563 5564 5565 5567 5570 5571 5572 5573 5573 5573 5575 5576 5576 5577 5578 5579 5580 5580 5579 5578 5579 5579 5579 5579 5580 5579 5579 5579 5579 5578 5578 5577 5576 5575 5574 5574 5573 5573 5572 5571 5570 5568 5567 5566 5564 5562 5561 5559 5557 5556 5553 5551 5548 5544 5540 5539 5537 5535 5533 5531 5528 5526 5523 5520 5518 5515 5512 5509 5506 5502 5499 5496 5493 5490 5488 5485 5482 5479 5476 5474
5555 5557 5558 5558 5557 5556 5556 5558 5559 5560 5562 5563 5564 5564 5564 5565 5567 5568 5569 5570 5570 5571 5571 5571 5571 5571 5571 5571 5571 5572 5571 5571 5571 5570 5570 5569 5569 5567 5566 5566 5565 5564 5564 5563 5562 5561 5560 5559 5558 5556 5554 5552 5550 5549 5547 5545 5544 5542 5538 5534 5531 5530 5528 5526 5523 5521 5519 5516 5513 5511 5508 5505 5502 5499 5495 5492 5489 5487 5484 5482 5480 5477 5474 5471 5468 5465
5547 5548 5548 5548 5548 5549 5549 5551 5552 5552 5553 5554 5555 5555 5556 5557 5559 5560 5562 5562 5562 5563 5563 5563 5564 5564 5563 5563 5563 5563 5563 5563 5562 5561 5561 5560 5559 5558 5557 5557 5555 5555 5554 5553 5552 5551 5550 5549 5547 5545 5544 5542 5539 5538 5537 5535 5533 5531 5528 5525 5523 5520 5518 5516 5514 5511 5509 5506 5503 5501 5498 5495 5492 5488 5485 5482 5480 5478 5476 5474 5471 5468 5465 5463 5459 5456
5539 5539 5539 5539 5540 5540 5541 5543 5544 5544 5545 5546 5547 5548 5549 5550 5551 5553 5554 5554 5555 5556 5556 5557 5557 5556 5555 5555 5555 5555 5554 5554 5553 5553 5552 5551 5550 5550 5549 5548 5547 5546 5545 5544 5543 5542 5541 5539 5537 5535 5534 5531 5529 5528 5527 5525 5523 5521 5519 5517 5514 5511 5508 5506 5504 5502 5499 5496 5493 5491 5488 5485 5481 5479 5477 5474 5471 5469 5466 5464 5462 5459 5457 5454 5451 5447
5532 5532 5531 5531 5531 5532 5533 5535 5536 5535 5536 5539 5540 5541 5542 5543 5544 5545 5546 5547 5548 5548 5549 5550 5550 5549 5548 5547 5547 5547 5546 5545 5545 5545 5544 5543 5543 5541 5540 5540 5539 5537 5536 5535 5534 5532 5531 5529 5527 5525 5523 5521 5518 5517 5516 5514 5512 5510 5509 5507 5505 5502 5499 5496 5493 5491 5489 5486 5484 5481 5478 5475 5472 5470 5468 5466 5463 5460 5457 5454 5452 5450 5448 5445 5442 5439
5524 5524 5522 5522 5522 5524 5525 5526 5526 5527 5529 5531 5533 5534 5535 5536 5538 5538 5539 5540 5540 5541 5542 5543 5542 5541 5540 5539 5539 5539 5538 5537 5537 5537 5536 5535 5534 5532 5531 5531 5529 5528 5527 5526 5524 5523 5521 5519 5517 5515 5513 5510 5508 5507 5506 5504 5502 5500 5498 5496 5494 5492 5489 5486 5484 5482 5479 5477 5474 5472 5469 5467 5464 5462 5459 5457 5454 5451 5447 5445 5443 5441 5439 5436 5432 5430
5515 5514 5513 5513 5514 5515 5517 5517 5518 5520 5522 5523 5525 5526 5528 5529 5531 5531 5532 5532 5533 5534 5535 5535 5534 5533 5532 5531 5530 5530 5529 5528 5528 5528 5527 5526 5524 5523 5522 5521 5520 5519 5517 5516 5515 5514 5511 5509 5508 5507 5504 5501 5499 5498 5496 5494 5492 5490 5487 5485 5483 5481 5478 5476 5474 5472 5470 5467 5465 5463 5461 5458 5456 5453 5450 5447 5445 5442 5439 5436 5433 5431 5429 5426 5423 5420